COSMOS 2251 DEB

Satellite information

Favourite Embed

Satellite Type and Status

DEBRISIN ORBIT

Key statistics

Satellite COSMOS 2251 DEB at a glance.

Uptime

11650

Days in orbit

Revolutions

≈ 14.5

Per day

Orbit

LEO

Low Earth Orbit

Inclination

74.0

Latest

Satellite identification and parameters

Extended collection of information and parameters for COSMOS 2251 DEB.

Object identification

Identified? True

Debris? True

Object name: COSMOS 2251 DEB

International designator: 1993-036MZ

Object number (NORAD): 34303

Object ID (CCSDS): 34303

Country: COMMONWEALTH OF INDEPENDENT STATES (CIS)

Current information (Y/N): Y

RCS size: SMALL

Orbital parameters

Period: 99.223 minutes

Inclination: 74.0079 deg

SMA: 7099.633 km

Apoapsis: 825.732 km

Periapsis: 617.264 km

RAAN: 340.3266 deg

Eccentricy: 0.0146816

Argument of periapsis: 170.9973 deg

Mean anomaly: 247.0901 deg

Mean motion: 14.51272432 rev/day

Mean motion (dot): 0.00006662 rev/day2

B* drag term: 0.001461 1/REarth

Two-line elements (TLE)

Creation date: May 8, 2025, 10:26 p.m.

Reference frame: TEME

Reference center: EARTH

Epoch: May 8, 2025, 3:08 p.m. UTC

TLE line 0: 0 COSMOS 2251 DEB

TLE line 1: 1 34303U 93036MZ 25128.63097596 .00006662 00000-0 14610-2 0 9991

TLE line 2: 2 34303 74.0079 340.3266 0146816 170.9973 247.0901 14.51272432848114

Live tracking on map

Real-time ground track for satellite COSMOS 2251 DEB.

In-orbit conjunctions

A list of the most updated potential collisions computed for object COSMOS 2251 DEB.

Target Orbit TCA Probability of collision Miss distance Type
DMSP 5D-2 F13 DEB SSO 2024-08-30 14:20:00 0.0001061873 230.0 (m) DEBRIS
SDS-1 SSO 2024-06-12 21:45:10 0.001810359 62.0 (m) PAYLOAD

Associated space launch

Military communications satellite. Destroyed in a collision with Iridium 33.

COSMOS 2251 DEB was lifted into orbit during the mission ‘Kosmos-3M | Strela-2M 51’, on board a Kosmos-3M space rocket.

The launch took place on June 16, 1993, 4:17 a.m. from 132/1 (132L).

For more information about the launch, click the button.

Launch to space Kosmos-3M | Strela-2M 51
Kosmos-3M | Strela-2M 51

Agency: N/A

Status: Launch Successful

Launch date: June 16, 1993, 4:17 a.m. UTC

Rocket: Kosmos-3M

Launch pad: 132/1 (132L)

Location: Plesetsk Cosmodrome, Russian Federation

...

Latest news about this satellite

There are no fresh news available about this satellite. Check back as we update our databases every day.


Newsletter sign-up

Weekly statistics, charts and insights to help you stay on top of the space industry.